sat.trackr.live / text

‹ back to catalog

HULIANWAN GAOGUI-03 (H*)

NORAD 61503 · 2024-181A

PAYLOAD ACTIVE UNKNOWN

§ Identity

Operator
Country
PRC
Launch date
2024-10-10
Launch site
XICLF
Launch vehicle
Mass (kg)
RCS (m²)

Purposes: comms

External: N2YO · Heavens-Above · Gunter

§ Orbital elements

Epoch: 2026-09-19T12:19:38.300736Z

Period
1,436.09 min
Inclination
0.0710°
Eccentricity
0.0001201
Mean motion
1.00272228 rev/d
Perigee alt
35,781.4 km
Apogee alt
35,791.5 km
Semi-major
42,164.6 km
B*
0.0000e+0
RAAN
350.0015°
Arg perigee
89.0295°
Mean anomaly
27.1959°
Rev number
777

§ Raw data

HULIANWAN GAOGUI-03 (H*)1 61503U 24181A   26262.51363774 -.00000246  00000+0  00000+0 0  99962 61503   0.0710 350.0015 0001201  89.0295  27.1959  1.00272228  7774

JSON: /api/v1/satellites/61503 · /tle

For live sub-satellite position, see the globe view (requires WebGL).

§ Visibility from observer

Set your observer location to see the next 7 days of passes ≥ 10°. The values pass through the URL so the page stays shareable.

No JS? Fill the form by hand. The geolocation button needs JavaScript.